Weather in Openki

Russia / Rostov Oblast     46°38′18″N   41°52′47″E
В апреле 2022 года жителям России запретили посещать сайт meteo.paraplan.net по решению Генеральной прокуратуры. Аудитория сайта уменьшилась в 10 раз. Владельцы сайта не видят смысла в поддержке погодного сервера в таких условиях. Сайт будет закрыт в октябре.
temp.,
°C
wind,
m/s
gust,
m/s
humid.,
%
clouds,
%
prec.,
mm/h
press.,
hPa
HPBL,
m
6 october, thu
thu600:00+11wnw34555 0.0 102568
03:00+10wnw34700 0.0 102661
06:00+9wnw338041 0.0 102650
09:00+13wnw356197 0.0 1026403
12:00+17wnw45415 0.0 10261388
15:00+18nw45364 0.0 10251492
18:00+14nnw34465 0.0 102654
21:00+12n33580 0.0 102737
7 october, fri
fri700:00+11nne22600 0.0 102715
03:00+10ese11610 0.0 102710
06:00+10s11640 0.0 102710
09:00+15s22480 0.0 1027328
12:00+19ssw11385 0.0 10261012
15:00+20w11345 0.0 10241354
18:00+17e01435 0.0 102412
21:00+14ese22505 0.0 102412
8 october, sat
sat800:00+14e225224 0.0 102418
03:00+13ene335514 0.0 102442
06:00+12e455877 0.0 102478
09:00+17e584280 0.0 1024538
12:00+20ese7934100 0.0 10231328
15:00+21e7933100 0.0 10211499
18:00+18e61240100 0.0 1021417
21:00+16e71447100 0.0 1021581
9 october, sun
sun900:00+15ese7155445 0.0 1020653
03:00+13ese6145842 0.0 1019478
06:00+12e7157025 0.0 1018456
09:00+16ese8145831 0.0 1018817
12:00+21ese91341100 0.0 10151277
15:00+22se81137100 0.0 10141601
18:00+20ese5104497 0.0 1013350
21:00+18ese51257100 0.0 1014458
10 october, mon
mon1000:00+17se6974100 0.1 1012498
03:00+15s2590100 1.1 1012294
06:00+15wnw2396100 10.4 1012286
09:00+15nw4690100 15.3 1013396
12:00+18nnw5767100 0.1 1014901
15:00+15wnw4768100 0.1 1015576
18:00+14nw61068100 0.0 1017496
21:00+12nw588548 0.0 1018532